Weather History for Middlesboro, KY

Change the Weather History Date:

Wednesday, March 19, 2014

  Actual Average (KLOZ) Record (KLOZ)
Temperature  
Mean Temperature 52 °F 48 °F  
Max Temperature 59 °F 60 °F 81 °F (1982)
Min Temperature 46 °F 37 °F 19 °F (1967)
Degree Days  
Heating Degree Days 12 17  
Month to date heating degree days 368  
Since 1 July heating degree days 3644  
Cooling Degree Days 0 0  
Month to date cooling degree days 0  
Year to date cooling degree days 0  
Growing Degree Days 2 (Base 50)    
Moisture  
Dew Point 43 °F    
Average Humidity 74    
Maximum Humidity 86    
Minimum Humidity 57    
Precipitation  
Precipitation 0.00 in 0.13 in 0.60 in (1974)
Month to date precipitation 2.48  
Year to date precipitation 9.73  
Sea Level Pressure  
Sea Level Pressure 29.99 in    
Wind  
Wind Speed 7 mph (SSW)    
Max Wind Speed 18 mph    
Max Gust Speed 32 mph    
Visibility 10 miles    
Events      
T = Trace of Precipitation, MM = Missing Value Source: NWS Daily Summary

Daily Weather History Graph

Daily Weather History Graph

Search for Another Location

Airport:

Trip Planner

Search our weather history database for the weather conditions in past years. The results will help you decide how hot, cold, wet, or windy it might be!

Date:

Astronomy

Mar. 19, 2014 Rise Set
Actual Time 6:39 AM CDT 6:45 PM CDT
Civil Twilight 6:14 AM CDT 7:11 PM CDT
Nautical Twilight 5:44 AM CDT 7:41 PM CDT
Astronomical Twilight 5:13 AM CDT 8:12 PM CDT
Moon 9:57 PM CDT (3/19) 8:10 AM CDT (3/19)
Length of Visible Light 12h 57m
Length of Day
12h 05m
Waning Gibbous, 91% of the Moon is Illuminated
Mar 19
Waning Gibbous
Mar 23
Last Quarter
Mar 30
New
Apr 7
First Quarter
Apr 15
Full

Hourly Weather History & Observations

Time (CDT) Temp. Windchill Dew Point Humidity Pressure Visibility Wind Dir Wind Speed Gust Speed Precip Events Conditions
12:15 AM 49.1 °F - 44.2 °F 83% 29.99 in 10.0 mi SSE 3.5 mph - N/A   Overcast
12:35 AM 48.7 °F - 44.2 °F 84% 30.00 in 10.0 mi South 4.6 mph - N/A   Overcast
12:55 AM 48.4 °F - 43.9 °F 84% 30.00 in 10.0 mi South 5.8 mph 18.4 mph N/A   Overcast
1:15 AM 48.2 °F - 43.7 °F 84% 30.00 in 10.0 mi South 8.1 mph - N/A   Overcast
1:35 AM 47.7 °F - 43.7 °F 86% 30.00 in 10.0 mi South 8.1 mph 18.4 mph N/A   Overcast
1:55 AM 47.7 °F - 43.3 °F 85% 30.00 in 10.0 mi South 6.9 mph 17.3 mph N/A   Overcast
2:15 AM 47.5 °F - 43.0 °F 84% 30.00 in 10.0 mi SSE 4.6 mph 16.1 mph N/A   Overcast
2:35 AM 47.3 °F - 42.8 °F 84% 30.00 in 10.0 mi South 9.2 mph - N/A   Overcast
2:55 AM 46.9 °F - 42.8 °F 86% 30.00 in 10.0 mi South 8.1 mph - N/A   Overcast
3:15 AM 46.8 °F - 42.4 °F 85% 30.00 in 10.0 mi SSW 5.8 mph - N/A   Overcast
3:35 AM 46.8 °F - 42.3 °F 84% 30.01 in 10.0 mi South 5.8 mph - N/A   Overcast
3:55 AM 46.6 °F - 42.1 °F 84% 30.01 in 10.0 mi South 8.1 mph - N/A   Overcast
4:15 AM 46.6 °F - 41.9 °F 84% 30.01 in 10.0 mi SSE 5.8 mph - N/A   Overcast
4:35 AM 46.6 °F - 41.9 °F 84% 30.01 in 10.0 mi SSE 4.6 mph - N/A   Mostly Cloudy
4:55 AM 46.6 °F - 41.9 °F 84% 30.01 in 10.0 mi South 5.8 mph - N/A   Overcast
5:15 AM 46.6 °F - 41.5 °F 83% 30.01 in 10.0 mi SE 6.9 mph - N/A   Overcast
5:35 AM 46.4 °F 45.2 °F 41.5 °F 83% 30.00 in 10.0 mi SSE 3.5 mph - N/A   Overcast
5:55 AM 46.6 °F - 41.5 °F 83% 30.00 in 10.0 mi SE 3.5 mph - N/A   Overcast
6:15 AM 46.4 °F 42.9 °F 41.4 °F 83% 30.00 in 10.0 mi South 6.9 mph - N/A   Overcast
6:35 AM 46.6 °F - 41.4 °F 82% 30.02 in 10.0 mi SSE 5.8 mph - N/A   Overcast
6:55 AM 46.9 °F - 41.4 °F 81% 30.01 in 10.0 mi South 9.2 mph 16.1 mph N/A   Mostly Cloudy
7:15 AM 47.3 °F - 41.4 °F 80% 30.01 in 10.0 mi South 10.4 mph 17.3 mph N/A   Mostly Cloudy
7:35 AM 47.8 °F - 41.4 °F 78% 30.00 in 10.0 mi South 9.2 mph 16.1 mph N/A   Overcast
7:55 AM 48.6 °F - 41.4 °F 76% 30.00 in 10.0 mi South 11.5 mph 23.0 mph N/A   Scattered Clouds
8:15 AM 50.0 °F - 41.2 °F 72% 30.01 in 10.0 mi SSW 10.4 mph 21.9 mph N/A   Scattered Clouds
8:35 AM 50.2 °F - 41.2 °F 71% 30.00 in 10.0 mi SSW 11.5 mph 21.9 mph N/A   Overcast
8:55 AM 50.7 °F - 41.2 °F 70% 30.01 in 10.0 mi SSW 18.4 mph 32.2 mph N/A   Overcast
9:15 AM 51.1 °F - 41.2 °F 69% 30.00 in 10.0 mi SSW 11.5 mph 28.8 mph N/A   Overcast
9:35 AM 51.4 °F - 41.5 °F 69% 30.00 in 10.0 mi SSW 13.8 mph 23.0 mph N/A   Overcast
9:55 AM 52.0 °F - 41.2 °F 67% 30.00 in 10.0 mi SSW 9.2 mph 18.4 mph N/A   Overcast
10:15 AM 52.7 °F - 41.5 °F 66% 30.00 in 10.0 mi SW 4.6 mph - N/A   Overcast
10:35 AM 53.1 °F - 41.5 °F 65% 30.00 in 10.0 mi SW 17.3 mph 21.9 mph N/A   Overcast
10:55 AM 53.6 °F - 41.0 °F 62% 30.00 in 10.0 mi SSW 11.5 mph 24.2 mph N/A   Overcast
11:15 AM 54.1 °F - 41.4 °F 62% 30.00 in 10.0 mi SW 10.4 mph 24.2 mph N/A   Overcast
11:35 AM 54.1 °F - 41.7 °F 63% 30.00 in 10.0 mi SW 13.8 mph 24.2 mph N/A   Overcast
11:55 AM 55.2 °F - 42.4 °F 62% 29.97 in 10.0 mi SSW 11.5 mph 25.3 mph N/A   Mostly Cloudy
12:15 PM 56.3 °F - 42.8 °F 61% 29.97 in 10.0 mi SW 8.1 mph - N/A   Scattered Clouds
12:35 PM 56.8 °F - 43.2 °F 60% 29.95 in 10.0 mi South 15.0 mph 21.9 mph N/A   Mostly Cloudy
12:55 PM 57.4 °F - 43.2 °F 59% 29.95 in 10.0 mi SSW 9.2 mph 19.6 mph N/A   Scattered Clouds
1:15 PM 59.0 °F - 43.7 °F 57% 29.95 in 10.0 mi South 8.1 mph 25.3 mph N/A   Scattered Clouds
1:35 PM 58.1 °F - 43.2 °F 58% 29.95 in 10.0 mi SW 13.8 mph 21.9 mph N/A   Overcast
1:55 PM 58.1 °F - 43.5 °F 58% 29.95 in 10.0 mi SW 12.7 mph 23.0 mph N/A   Overcast
2:15 PM 56.1 °F - 43.5 °F 63% 29.95 in 10.0 mi SW 10.4 mph 21.9 mph N/A   Overcast
2:35 PM 56.3 °F - 44.1 °F 64% 29.95 in 10.0 mi SW 6.9 mph 19.6 mph N/A   Overcast
2:55 PM 55.0 °F - 43.7 °F 66% 29.96 in 10.0 mi SSW 13.8 mph 23.0 mph N/A   Overcast
3:15 PM 55.4 °F - 44.1 °F 66% 29.96 in 10.0 mi SSW 6.9 mph - N/A   Overcast
3:35 PM 55.0 °F - 44.4 °F 67% 29.96 in 10.0 mi SSW 9.2 mph 16.1 mph N/A   Overcast
3:55 PM 54.9 °F - 44.6 °F 68% 29.96 in 10.0 mi SSW 5.8 mph - N/A   Overcast
4:15 PM 54.7 °F - 44.6 °F 69% 29.96 in 10.0 mi South 6.9 mph - N/A   Overcast
4:35 PM 55.0 °F - 44.6 °F 68% 29.96 in 10.0 mi SW 4.6 mph - N/A   Overcast
4:55 PM 54.5 °F - 44.2 °F 68% 29.96 in 10.0 mi SW 8.1 mph 18.4 mph N/A   Overcast
5:15 PM 54.3 °F - 43.9 °F 68% 29.97 in 10.0 mi SW 10.4 mph 18.4 mph N/A   Overcast
5:35 PM 53.6 °F - 44.4 °F 71% 29.97 in 10.0 mi South 3.5 mph - N/A   Overcast
5:55 PM 53.1 °F - 44.6 °F 73% 29.97 in 10.0 mi SSW 4.6 mph - N/A   Overcast
6:15 PM 52.7 °F - 44.4 °F 73% 29.98 in 10.0 mi SSW 10.4 mph - N/A   Overcast
6:35 PM 52.7 °F - 44.6 °F 74% 29.98 in 10.0 mi SW 10.4 mph - N/A   Overcast
6:55 PM 52.0 °F - 44.6 °F 76% 29.99 in 10.0 mi South 8.1 mph - N/A   Mostly Cloudy
7:15 PM 52.0 °F - 44.8 °F 76% 30.00 in 10.0 mi SSW 9.2 mph - N/A   Overcast
7:35 PM 51.8 °F - 44.8 °F 77% 30.00 in 10.0 mi South 5.8 mph - N/A   Overcast
7:55 PM 51.6 °F - 44.8 °F 77% 30.00 in 10.0 mi SSW 3.5 mph - N/A   Overcast
8:15 PM 51.3 °F - 45.0 °F 79% 30.01 in 10.0 mi SW 5.8 mph - N/A   Mostly Cloudy
8:35 PM 51.8 °F - 45.1 °F 78% 30.01 in 10.0 mi SSW 5.8 mph - N/A   Overcast
8:55 PM 51.4 °F - 45.3 °F 80% 30.01 in 10.0 mi SSW 5.8 mph - N/A   Overcast
9:15 PM 51.4 °F - 45.5 °F 80% 30.01 in 10.0 mi SSW 4.6 mph - N/A   Overcast
9:35 PM 51.1 °F - 45.5 °F 81% 30.02 in 10.0 mi South 3.5 mph - N/A   Overcast
9:55 PM 51.6 °F - 45.5 °F 80% 30.02 in 10.0 mi Calm Calm - N/A   Overcast
10:15 PM 50.5 °F - 45.0 °F 81% 30.03 in 10.0 mi NW 3.5 mph - N/A   Overcast
10:35 PM 52.2 °F - 40.1 °F 64% 30.03 in 10.0 mi NW 5.8 mph - N/A   Overcast
10:55 PM 51.1 °F - 39.7 °F 65% 30.04 in 10.0 mi West 5.8 mph - N/A   Overcast
11:15 PM 50.9 °F - 39.2 °F 64% 30.05 in 10.0 mi Calm Calm - N/A   Mostly Cloudy
11:35 PM 48.9 °F - 38.7 °F 68% 30.05 in 10.0 mi Calm Calm - N/A   Scattered Clouds
11:55 PM 49.1 °F - 38.3 °F 66% 30.05 in 10.0 mi West 6.9 mph - N/A   Mostly Cloudy